Cloud_Cover
0 0 0 0 0 0 0 0 0 0 0 0 0 0 0 0 0 0 8 20 24 32 36 48 56 56 64 68 64 56 56 64 48 48 56 64 56 56 64 64 64 64 64 64 64 64 56 64 56 48 48 44 36 36 44 44 48 68 80 88 88 80 76 76 76 80 88 92 92
0 0 0 0 0 0 0 0 0 0 0 0 0 0 0 0 0 0 0 0 8 20 32 36 48 56 56 64 64 56 48 56 44 44 44 56 56 56 56 44 48 56 56 56 64 68 68 64 48 48 48 48 48 44 36 36 44 64 80 88 88 88 88 80 76 76 88 76 80
0 0 0 0 0 0 0 0 0 0 0 0 0 0 0 0 0 0 0 0 0 0 8 32 32 36 44 48 48 48 44 32 44 44 44 36 44 48 48 48 48 48 48 48 48 56 56 56 56 56 48 44 48 48 48 32 32 44 68 76 64 76 88 76 76 80 88 88 68
0 0 0 0 0 0 0 0 0 0 0 0 0 0 0 0 0 0 0 0 0 0 0 20 32 36 44 36 36 36 36 36 44 44 44 44 36 32 36 44 44 44 44 36 36 44 44 36 36 48 48 56 48 44 44 44 44 44 36 44 56 76 88 68 68 80 88 88 76
0 0 0 0 0 0 0 0 0 0 0 0 0 0 0 0 0 0 0 0 0 0 0 0 12 20 24 24 24 24 24 32 32 32 36 36 36 32 32 32 32 36 36 36 32 32 24 24 24 32 44 48 56 56 56 44 44 44 48 64 76 80 88 92 88 80 80 64 80
0 0 0 0 0 0 0 0 0 0 0 0 0 0 0 0 0 0 0 0 0 0 0 0 0 0 0 8 12 12 12 12 20 24 24 24 32 36 32 24 24 24 20 24 32 24 24 20 20 20 24 32 36 44 48 56 56 44 32 32 36 44 56 80 80 88 88 80 80
0 0 0 0 12 8 0 0 0 0 0 0 0 0 0 0 0 0 0 0 0 0 0 0 0 0 0 0 8 8 12 8 8 12 20 12 12 24 32 32 24 20 20 20 20 20 12 12 12 12 12 20 24 32 32 36 44 44 36 44 36 32 44 64 56 68 80 80 80
0 0 0 12 12 20 20 20 12 8 0 0 0 0 0 0 0 0 0 0 0 0 0 0 0 0 0 0 0 0 8 0 8 8 8 12 12 12 12 24 24 20 20 12 12 8 8 8 8 12 12 12 20 20 20 24 32 24 24 36 44 56 64 56 44 44 56 80 80
0 0 8 32 24 32 32 32 24 12 0 0 0 0 0 0 0 0 0 0 0 0 0 0 0 0 0 0 0 0 0 0 0 0 0 0 0 8 8 8 12 20 12 8 0 0 0 8 0 0 8 8 12 20 20 24 20 20 20 20 24 36 44 48 56 64 68 68 76
0 0 8 36 44 44 36 44 36 24 8 0 0 0 0 0 0 0 0 0 0 0 0 0 0 0 0 0 0 0 0 0 0 0 0 0 0 0 0 8 8 8 8 12 12 8 0 0 0 0 0 0 0 8 8 12 8 8 8 12 12 20 24 32 56 68 76 64 76
0 0 0 0 32 44 56 56 56 36 20 8 0 0 0 0 0 0 0 0 0 0 0 0 0 0 0 0 0 0 0 0 0 0 0 0 0 0 0 0 8 12 12 8 8 8 8 0 0 0 0 0 0 0 0 8 0 0 8 8 12 12 12 20 32 44 56 80 68
0 0 0 0 0 12 32 36 56 48 36 24 8 0 0 0 0 0 0 0 0 0 0 0 0 0 0 0 0 0 0 0 0 0 0 0 0 0 0 0 0 0 0 0 8 8 8 0 0 0 0 0 0 0 0 0 0 0 0 0 8 8 12 12 44 64 68 64 64
0 0 0 0 0 0 0 0 24 44 56 48 32 8 0 0 0 0 0 8 8 8 0 0 0 0 0 0 0 0 0 0 0 0 0 0 0 0 0 0 0 0 0 0 0 0 8 0 0 0 0 0 0 0 0 0 0 0 0 0 8 8 8 12 24 64 92 88 88
0 0 0 0 0 0 0 0 0 24 48 68 48 24 8 8 8 0 8 12 20 20 12 0 0 0 0 0 0 0 0 0 0 0 0 0 0 0 0 0 0 0 0 0 0 0 0 0 0 0 0 0 0 0 0 0 0 0 0 0 0 8 8 8 12 44 80 88 80
0 0 0 0 0 0 0 0 0 20 36 56 68 64 48 44 32 12 0 0 8 8 8 8 0 0 0 0 0 0 0 0 0 0 0 0 0 0 0 0 0 0 0 0 0 0 0 0 0 0 0 0 0 0 0 0 0 0 0 0 0 0 0 8 8 24 64 92 76
0 0 0 0 0 0 0 0 8 32 64 68 76 80 80 64 36 12 0 0 0 0 0 0 0 0 0 0 0 0 0 0 0 0 0 0 0 0 0 0 0 0 0 0 0 0 0 0 0 0 0 0 0 0 0 0 0 0 0 0 0 0 0 0 0 32 68 92 88
0 0 0 0 0 0 8 32 48 68 88 88 64 56 48 32 12 0 0 0 0 0 0 0 0 0 0 0 0 0 0 0 0 0 0 0 0 0 0 0 0 0 0 0 0 0 0 0 0 0 0 0 0 0 0 0 0 0 0 0 0 0 0 0 0 44 88 88 88
0 0 0 0 0 0 12 48 68 76 68 64 44 32 20 8 0 0 0 0 0 0 0 0 0 0 0 0 0 0 0 0 0 0 0 0 0 0 0 0 0 0 0 0 0 0 0 0 0 0 0 0 0 0 0 0 0 0 0 0 0 0 0 0 0 20 56 88 80
0 0 0 0 0 0 0 12 24 44 56 44 36 32 20 12 8 0 0 0 0 0 0 0 0 0 0 0 0 0 0 0 0 0 0 0 0 0 0 0 0 0 0 0 0 0 0 0 0 0 0 0 0 0 0 0 0 0 0 0 0 0 0 0 0 12 44 88 64
0 0 0 0 0 0 0 0 0 8 24 36 36 32 24 20 12 0 0 0 0 0 0 0 0 0 0 0 0 0 0 0 0 0 0 0 0 0 0 0 0 0 0 0 0 0 0 0 0 0 0 0 0 0 0 0 0 0 0 0 0 0 0 0 0 20 48 88 80
0 0 0 0 0 0 0 0 0 0 0 12 12 12 8 8 0 0 0 0 0 0 0 0 0 0 0 0 0 0 0 0 0 0 0 0 0 0 0 0 0 0 0 0 0 0 0 0 0 0 0 0 0 0 0 0 0 0 0 0 0 0 0 20 20 44 68 88 88
0 0 0 0 0 0 0 0 0 0 0 0 0 0 0 0 0 0 0 0 0 0 0 0 0 0 0 0 0 0 0 0 0 0 0 0 0 0 0 0 0 0 0 0 0 0 0 0 0 0 0 0 0 0 0 0 0 0 0 0 0 8 24 68 76 80 88 88 88
0 0 0 0 0 0 0 0 0 0 0 0 0 0 0 0 0 0 0 0 0 0 0 0 0 0 0 0 0 0 0 0 0 0 0 0 0 0 0 0 0 0 0 0 0 0 0 0 0 0 0 0 0 0 0 0 8 24 48 64 64 68 76 88 88 88 80 88 88
0 0 0 0 0 0 0 0 0 0 0 0 0 0 0 0 0 0 0 0 0 0 0 0 0 0 0 0 0 0 0 0 0 0 0 0 0 0 0 0 0 0 0 0 0 0 0 0 0 0 0 8 12 32 36 24 20 48 80 88 88 88 88 88 68 48 48 68 88
0 0 0 0 0 0 0 0 0 0 0 0 0 0 0 0 0 0 0 0 0 0 0 0 0 0 0 0 0 0 0 0 0 0 0 0 0 0 0 0 0 0 0 0 0 0 0 0 0 0 12 56 76 80 80 76 76 80 88 88 88 88 80 56 76 64 48 80 88
0 0 0 0 0 0 0 0 0 0 0 0 0 0 0 0 0 0 0 0 0 0 0 0 0 0 0 0 0 0 0 0 0 0 0 0 0 0 0 0 0 0 0 0 0 0 0 0 0 0 24 88 88 88 88 88 68 76 88 88 88 88 88 80 88 80 76 68 80
0 0 0 0 0 0 0 0 0 0 0 0 0 0 0 0 0 0 0 0 0 0 0 0 0 0 0 0 0 0 0 0 0 0 0 0 0 0 0 0 0 0 0 0 0 0 0 0 0 20 48 80 88 88 88 88 88 88 88 88 88 88 88 88 88 88 76 48 56
0 0 0 0 0 0 0 0 0 0 0 0 0 0 0 0 0 0 0 0 0 0 0 0 0 0 0 0 0 0 0 0 0 0 0 0 0 0 0 0 0 0 0 0 0 8 24 80 88 88 88 88 88 88 88 88 88 88 88 88 88 88 88 88 88 88 80 48 48
0 0 0 0 0 0 0 0 0 0 0 0 0 0 0 0 0 0 0 0 0 0 0 0 0 0 0 0 0 0 0 0 0 0 0 0 0 0 0 0 0 0 8 32 76 88 88 88 88 88 88 88 88 88 88 88 88 88 88 88 88 88 88 76 88 88 88 88 76
0 0 0 0 0 0 0 0 0 0 0 0 0 0 0 0 0 0 0 0 0 0 0 0 0 0 0 0 0 0 0 0 0 0 0 0 0 0 0 0 20 36 48 44 76 88 88 88 48 44 64 88 88 88 88 88 88 88 88 88 56 68 88 88 88 88 88 88 88
0 0 0 0 0 0 0 0 0 0 0 0 0 0 0 0 0 0 0 0 8 8 12 12 32 20 0 0 8 12 12 8 12 12 20 32 24 32 36 44 68 80 88 88 76 48 32 44 48 68 88 88 88 88 88 88 88 88 88 80 88 88 88 88 88 68 48 44 76
0 0 0 0 0 0 0 0 0 0 0 0 0 8 12 24 24 24 32 36 32 24 24 20 24 24 32 44 24 48 68 24 36 64 80 80 80 64 32 20 68 88 80 64 36 32 44 88 56 48 64 80 88 88 88 88 88 88 80 56 76 88 88 88 48 64 88 80 88
0 0 0 0 0 0 0 0 0 0 0 8 24 56 80 80 44 24 36 76 80 64 48 80 76 76 76 80 80 80 68 36 68 80 80 80 80 80 80 80 88 80 64 24 36 56 76 88 56 36 36 56 80 88 80 76 80 80 80 88 80 80 88 88 88 88 76 36 80
0 0 0 0 0 0 0 0 0 0 20 48 76 80 80 80 80 56 32 36 68 64 48 80 56 44 44 76 80 80 80 80 80 68 64 80 80 80 80 80 88 64 44 56 76 80 88 88 88 68 48 64 80 80 68 56 76 88 88 88 76 76 88 88 80 76 64 56 80
0 0 0 0 0 0 0 0 8 24 56 80 76 76 80 80 80 76 76 80 80 80 80 80 56 48 56 48 68 80 80 76 68 68 68 76 80 80 80 80 80 68 64 76 68 76 88 80 80 80 88 88 88 76 68 68 80 88 88 88 88 80 80 88 68 68 80 88 92
0 0 0 0 0 0 0 12 24 56 80 80 56 64 80 80 76 76 80 80 80 80 80 80 80 80 80 80 80 80 80 68 48 36 44 64 80 80 76 56 80 80 80 76 80 80 76 80 88 88 88 88 88 88 88 88 88 88 80 80 80 76 68 88 76 76 76 88 92
0 0 0 0 0 0 20 48 56 68 76 64 64 68 76 80 68 76 80 80 80 80 80 80 68 64 64 68 68 80 88 88 88 80 68 76 88 80 68 48 76 80 80 88 88 88 88 80 80 80 88 92 88 88 88 88 88 80 80 68 76 68 64 88 88 88 80 80 88
0 0 0 0 8 24 44 68 76 68 56 24 68 76 76 80 80 80 80 80 80 80 76 64 44 44 48 64 64 68 80 80 88 92 88 68 80 88 88 68 56 68 80 92 88 88 92 92 80 80 92 92 88 88 88 88 80 80 80 68 56 56 68 92 92 88 80 68 68
0 0 0 8 36 56 64 80 68 56 56 56 76 80 80 80 80 80 80 80 88 80 76 48 44 56 76 88 88 80 76 76 88 92 88 80 88 88 92 88 56 56 76 92 92 92 92 92 92 92 92 92 88 88 88 88 80 80 80 76 64 56 56 80 88 80 64 36 48
0 0 0 20 64 76 76 80 64 68 80 80 80 80 80 80 80 88 88 88 80 80 80 76 56 56 76 88 92 88 88 80 92 92 88 88 80 88 88 88 68 76 88 92 92 92 92 92 92 92 92 92 88 88 92 92 92 80 68 80 76 68 56 56 68 64 56 56 76
0 0 8 36 56 68 80 80 80 80 80 80 80 88 88 88 88 88 88 80 80 80 88 88 76 76 88 92 92 92 92 88 92 88 88 88 88 88 88 88 80 80 88 92 92 92 92 92 92 92 92 92 92 92 92 92 88 80 76 80 76 68 64 44 48 64 76 88 88